Regional Weather Roundup
Issued by NWS

Home | Current Version | Previous Version | Graphics & Text | Print | Product List | Glossary Off
Versions: 1 2 3 4 5 6 7 8 9 10 11 12 13 14 15 16 17 18 19 20 21 22 23 24 25 26 27 28 29 30 31 32 33 34 35 36 37 38 39 40 41 42 43 44 45 46 47 48 49 50

000
ASUS43 KLSX 230957
RWRMO

WEATHER SUMMARY FOR MISSOURI
NATIONAL WEATHER SERVICE SPRINGFIELD MO
400 AM CST FRI FEB 23 2018

NOTE: "FAIR" INDICATES FEW OR NO CLOUDS BELOW 12,000 FEET WITH NO
       SIGNIFICANT WEATHER AND/OR OBSTRUCTIONS TO VISIBILITY.
       CURRENT SKY AND/OR WEATHER CONDITIONS ARE NOT AVAILABLE FOR
       CHILLICOTHE AND FARMINGTON.

MOZ001>031-035>038-043-044-053-054-231100-
...NORTHERN AND WESTERN MISSOURI...

CITY           SKY/WX    TMP DP  RH WIND       PRES   REMARKS
KANSAS CTY INT FRZ DRZL  32  31  96 W7        30.20R VSB 1/4 WCI  26
LEE`S SUMMIT   CLOUDY    33  33 100 W8        30.20S WCI  26
ST JOSEPH      CLOUDY    33  32  96 W7        30.21R WCI  27
CHILLICOTHE      N/A     33  32  96 VRB3      30.19R

$$
MOZ066>068-077>081-088>096-101>105-231100-
...SOUTHWEST MISSOURI...

CITY           SKY/WX    TMP DP  RH WIND       PRES   REMARKS
SPRINGFIELD    CLOUDY    41  41 100 NW6       30.20R FOG
JOPLIN         CLOUDY    38  38 100 W6        30.23R FOG

$$
MOZ032>034-039>042-045>050-055>058-069>072-231100-
...CENTRAL MISSOURI...

CITY           SKY/WX    TMP DP  RH WIND       PRES   REMARKS
COLUMBIA       NOT AVBL
JEFFERSON CITY CLOUDY    44  41  89 W6        30.19S
SEDALIA        CLOUDY    38  38 100 W7        30.20S
WARRENSBURG    CLOUDY    34  34 100 W7        30.20S WCI  28

$$
MOZ051-052-059>065-231100-
...EAST CENTRAL MISSOURI...

CITY           SKY/WX    TMP DP  RH WIND       PRES   REMARKS
ST LOUIS INTL  DRIZZLE   46  46 100 W8        30.17F

$$
MOZ072>076-082>087-097>100-106>115-231100-
...SOUTH CENTRAL AND SOUTHEAST MISSOURI...

CITY           SKY/WX    TMP DP  RH WIND       PRES   REMARKS
CAPE GIRARDEAU LGT RAIN  56  55  97 S10       30.13F
FARMINGTON     LGT RAIN  48  48 100 SW8       30.16F FOG
POPLAR BLUFF   CLOUDY    49  49 100 S5        30.17R
WEST PLAINS    CLOUDY    44  43  96 W6        30.19S FOG

$$



USA.gov is the U.S. government's official web portal to all federal, state and local government web resources and services.